MAYA-6

Last updated on Sun Dec 10 2023 00:02:07 GMT+0000 (Coordinated Universal Time)

1 57420U 98067VX 23342.61142106 .05638033 12147-4 11281-2 0 9995 2 57420 51.6031 165.7513 0008255 277.4357 82.5727 16.30544114 22339

Satellite not in orbit